Погода в Ишиме

Погода в Ишиме : погода сейчас, прогноз погоды и архив. Всё, что Вы хотите узнать о погоде в Ишиме!

Хотите узнать прогноз погоды в Ишиме? Тогда Вам сюда: Погода в Ишиме

Поиск расширенной информации на нашем сайте:

Другие новости

Новости СМИ2

Главная страница сайта

Новости сайта

03.07.2017

Напоминаем, что на нашем специализированном сайте Метеоцентр.Азия вы можете получить высокодетализированные автоматические прогнозы погоды по пунктам России, СНГ и мира в авиационном формате (включающие направление и скорость ветра, видимость, явления погоды, количество и форму облачности, нижнюю и верхнюю границу облачности).


Погода в Ишиме - сегодня

Время (UTC), дата Ветер
(°,м/с) 
Видим.   Явления Облачность Т
(°С)
Тd
(°С)
f(%) Тe
(°С)
Pmin
(гПа)
dP
(гПа)
Po
(мм)
O2
(г/м3)
Тmin Tmax R s Состояние
почвы
09 12.10.18 330 (СЗ) 20000 м  в посл. час ливневой снег  10/10 600 м кучево-дожд. 
[Cb cap]
+3 +0.9 86 +2  1002.2  1.4  744  296           
12 12.10.18 320 (СЗ) 20000 м    10/10 600 м кучево-дожд. 
[Cb cap]
+2.4 -0.1 84 +1  1004  1.7  745  298           
18 12.10.18 290 (З) 10 км    ясно 
-1.7 -3.3 89 -1  1005.2  -0.3  746  303           
21 12.10.18 310 (СЗ) 10 км    ясно 
-2.6 -4.9 84 -2  1005.2  746  304           
00 13.10.18 230 (ЮЗ) 10 км    ясно 
-5.4 -6.5 92 -5  1005.1  -0.2  746  307           
03 13.10.18 230 (ЮЗ) 20000 м    3/0 верхняя 
[Ci fib]
-4.1 -4.9 94 -4  1005.5  0.3  746  306  -6.1        замёрзшая 
06 13.10.18 230 (ЮЗ) 20000 м    4/0 средняя 
[Ac trans]
+2.3 -3.2 67 1005  -0.2  746  298           
09 13.10.18 310 (СЗ) 20000 м    6/6 600 м кучево-дожд. 
[Cb cap]
+3 -2.9 65 +2  1004.8  -0.1  746  298           
12 13.10.18 240 (ЮЗ) 20000 м  {ливн. осадки}  6/6 600 м кучево-дожд. 
[Cb cap]
+0.9 -2.3 79 1006  1.1  747  300           
15 13.10.18 240 (ЮЗ) 10 км    10/3 600 м кучево-дожд., средняя 
[Cb cap|Ac As]
-0.8 -2.9 86 -2  1006.8  0.7  747  302           
18 13.10.18 240 (ЮЗ) 10 км    10/10 600 м кучево-дожд. 
[Cb cap]
-0.4 -1.6 92 -1  1006.9  0.7  747  302           
21 13.10.18 240 (ЮЗ) 10 км    10/10 600 м кучево-дожд. 
[Cb cap]
+0.3 -1 91 1007.7  0.8  748  301           
00 14.10.18 220 (ЮЗ) 10 км  слаб. ливневой снег  10/10 600 м кучево-дожд. 
[Cb cap]
+0.5 -0.5 93 1008.1  0.8  748  301           
03 14.10.18 250 (З) 20000 м  {ливн. осадки}  9/9 600 м кучево-дожд. 
[Cb cap]
-0.2 -1.5 91 -2  1009.1  0.9  749  302  -0.8    0.0    влажная 
09 14.10.18 270 (З) 4000 м  слаб. ливневой снег  9/9 600 м кучево-дожд. 
[Cb cap]
+2 -0.9 81 +1  1010.8  0.8  750  300           
12 14.10.18 220 (ЮЗ) 20000 м  {ливн. осадки}  10/4 600 м кучево-дожд., верхняя 
[Cb cap|Ci fib]
+0.4 -1.8 85 1012  751  302           
15 14.10.18 180 (Ю) 10 км  в посл. час крупа{ливн. осадки}  9/9 600 м кучево-дожд. 
[Cb cap]
+0.4 -0.8 92 +1  1013.2  1.2  752  303    +2.8     
18 14.10.18 180 (Ю) 10 км  в посл. час ливневой снег  9/9 600 м кучево-дожд. 
[Cb cap]
-0.3 -1.1 94 -1  1013.8  0.6  753  304           
21 14.10.18 150 (ЮВ) 10 км  {ливн. осадки}  10/10 300 м кучево-дожд. 
[Cb cap]
-0.1 -0.8 95 -1  1014.7  0.9  753  304           
00 15.10.18 130 (ЮВ) 10 км  {ливн. осадки}  10/10 600 м кучево-дожд. 
[Cb cap]
-0.3 -1 95 1015.9  1.1  754  304           
03 15.10.18 140 (ЮВ) 20000 м    10/10 600 м кучево-дожд. 
[Cb cap]
-0.6 -1.8 92 1017.5  1.6  755  305  -0.7    0.8  равномерный
сухой снег
100% 
09 15.10.18 140 (ЮВ) 20000 м  {ливн. осадки}  3/3 600 м кучево-дожд. 
[Cb cap]
+2.9 -2.5 68 +2  1018.9  0.4  756  302           
12 15.10.18 060 (СВ) 20000 м  {ливн. осадки}  3/3 600 м кучево-дожд. 
[Cb cap]
+1.4 -2.5 75 +1  1020  1.1  757  304           
15 15.10.18 350 (С) 10 км    ясно 
-2.1 -3.3 91 -2  1021.2  758  308    +3.3  0.0     
18 15.10.18 350 (С) 10 км    3/0 средняя 
[Ac trans]
-3.5 -4.2 95 -3  1021.8  0.6  758  310           
Время (UTC), дата Ветер
(°,м/с) 
Видим.   Явления Облачность Т
(°С)
Тd
(°С)
f(%) Тe
(°С)
Pmin
(гПа)
dP
(гПа)
Po
(мм)
O2
(г/м3)
Тmin Tmax R s Состояние
почвы

Для получения пояснительной информации подведите курсор к названию столбца.

ПОГОДА в Ишиме - архив

Всё, что Вы хотите узнать о погоде в Ишиме - удобно и подробно!

Выберите нужную дату (начиная с 1 января 2015* года) и нажмите кнопку "Найти".
Будут отображены архивные сводки погоды по пункту Ишим, начиная с указанной даты.


Отображать данные в формате CSV (для использования в таблицах Excel)


Внимание! Наш архив погоды предназначен исключительно для личного некоммерческого использования в познавательных целях. Если Вам необходимы официальные справки о состоянии погоды (для производственных, юридических, коммерческих и т.п. целей), обращайтесь в органы Росгидромета.

*Примечание: данная дата относится к архиву по метеостанциям СССР (Россия, СНГ, Балтия).
Архив по метеостанциям Зарубежной Европы и Азии (кроме Китая) хранится 10 дней, по другим регионам земного шара (Китай, Африка, Америка, Австралия, Океания) - 1 день.

Ишим - район местоположения метеостанции


Название, широта, долгота, высота метеостанции:
Ишим 56.1°ш. 69.4°д. 82 м над ур. моря [Российская Федерация]

Дополнительная информация

В oтличие oт бoльшинства пoгoдных сайтoв мы публикуем пoдрoбную метеoинфoрмацию в детальнoм прoфессиoнальнoм фoрмате.

Характеристики температуры и влажнoсти вoздуха измеряются на высoте 2 м в тени вдали oт зданий и деревьев.
Скoрoсть ветра измеряется на высoте 10 м (на урoвне рoста челoвека скoрoсть ветра ниже в 1.5-2 раза). Если метеoстанция нахoдится в гoрoде или в лесу, тo скoрoсть ветра занижена на 2-4 м/с пo сравнению с oткрытым местoм. Скoрoсть ветра над акватoриями крупных рек и oзёр, а также на вершинах хoлмoв на 2-5 м/с выше, чем в oбычных услoвиях.
Атмoсфернoе давление в разных тoчках местнoсти мoжет значительнo oтличаться oт давления на метеoстанции, в зависимoсти oт услoвий рельефа (при пoдъёме на 10 м давление пoнижается примернo на 1 мм рт.ст.).